DAL2211 OERK-OMDB

Flight info

Callsign DAL2211
Flight time 0h 37m
Altitude 31000
Route RESAL T533 RAPMA DCT KUVSO DCT RIBOT M550 GOLGU M318 RURAL Q317 LORID
Aircraft A320/M-SDE3FGHIRWY/LB1

Departure

Time 2026-04-21 10:59
Airport King Khalid International Airport (OERK)

Arrival

Time 2026-04-21 11:36
Airport Dubai International Airport (OMDB)
Time Latitude Longitude Altitude Speed Heading
2026-04-21 10:30 24.96464 46.70059 2029 ft 0 kts 184°
2026-04-21 10:45 24.96467 46.70059 2029 ft 2 kts 185°
2026-04-21 10:45 24.96486 46.70063 2032 ft 3 kts 198°
2026-04-21 10:46 24.96504 46.70071 2031 ft 3 kts 214°
2026-04-21 10:46 24.96519 46.70085 2032 ft 3 kts 230°
2026-04-21 10:46 24.96531 46.70103 2039 ft 3 kts 244°
2026-04-21 10:46 24.96539 46.70124 2036 ft 3 kts 255°
2026-04-21 10:47 24.96543 46.70145 2036 ft 3 kts 263°
2026-04-21 10:47 24.96545 46.70168 2038 ft 3 kts 269°
2026-04-21 10:47 24.96545 46.70190 2039 ft 3 kts 274°
2026-04-21 10:47 24.96543 46.70212 2038 ft 3 kts 278°
2026-04-21 10:48 24.96539 46.70234 2035 ft 3 kts 284°
2026-04-21 10:48 24.96533 46.70255 2034 ft 3 kts 294°
2026-04-21 10:48 24.96524 46.70273 2031 ft 2 kts 317°
2026-04-21 10:48 24.96519 46.70278 2034 ft 0 kts 330°
2026-04-21 10:52 24.96521 46.70277 2034 ft 3 kts 330°
2026-04-21 10:53 24.96544 46.70263 2036 ft 3 kts 331°
2026-04-21 10:53 24.96561 46.70252 2033 ft 5 kts 331°
2026-04-21 10:53 24.96667 46.70187 2029 ft 21 kts 328°
2026-04-21 10:53 24.96744 46.70137 2034 ft 4 kts 330°
2026-04-21 10:54 24.96762 46.70126 2032 ft 3 kts 330°
2026-04-21 10:54 24.96773 46.70119 2031 ft 1 kts 330°
2026-04-21 10:54 24.96793 46.70106 2029 ft 7 kts 330°
2026-04-21 10:54 24.96825 46.70086 2032 ft 5 kts 330°
2026-04-21 10:55 24.96894 46.70087 2033 ft 14 kts 58°
2026-04-21 10:55 24.96951 46.70178 2029 ft 15 kts 59°
2026-04-21 10:55 24.97021 46.70260 2036 ft 17 kts
2026-04-21 10:55 24.97129 46.70207 2036 ft 16 kts 331°
2026-04-21 10:56 24.97222 46.70147 2034 ft 14 kts 330°
2026-04-21 10:56 24.97304 46.70096 2033 ft 13 kts 330°
2026-04-21 10:56 24.97374 46.70052 2028 ft 11 kts 330°
2026-04-21 10:56 24.97433 46.70015 2030 ft 9 kts 330°
2026-04-21 10:57 24.97483 46.69984 2031 ft 7 kts 332°
2026-04-21 10:57 24.97546 46.69980 2031 ft 18 kts 22°
2026-04-21 10:57 24.97622 46.70099 2033 ft 19 kts 65°
2026-04-21 10:57 24.97631 46.70122 2031 ft 4 kts 65°
2026-04-21 10:58 24.97639 46.70213 2034 ft 15 kts 114°
2026-04-21 10:58 24.97553 46.70285 2032 ft 23 kts 152°
2026-04-21 10:58 24.97205 46.70508 2029 ft 91 kts 149°
2026-04-21 10:58 24.96493 46.70963 2034 ft 143 kts 149°
2026-04-21 10:59 24.95540 46.71536 2349 ft 158 kts 152°
2026-04-21 10:59 24.94537 46.72046 2888 ft 160 kts 156°
2026-04-21 10:59 24.93512 46.72534 3334 ft 161 kts 145°
2026-04-21 10:59 24.92541 46.73172 3759 ft 166 kts 145°
2026-04-21 11:00 24.91701 46.74093 3903 ft 180 kts 111°
2026-04-21 11:00 24.91553 46.75496 4063 ft 198 kts 83°
2026-04-21 11:00 24.91675 46.77089 4295 ft 220 kts 87°
2026-04-21 11:00 24.91709 46.78861 4555 ft 244 kts 90°
2026-04-21 11:01 24.91735 46.83509 5896 ft 274 kts 92°
2026-04-21 11:01 24.91858 46.92438 8646 ft 303 kts 94°
2026-04-21 11:01 24.92025 47.02216 10686 ft 350 kts 94°
2026-04-21 11:02 24.92488 47.26634 14680 ft 418 kts 92°
2026-04-21 11:02 24.92709 47.39775 16677 ft 439 kts 91°
2026-04-21 11:02 24.92920 47.53548 18645 ft 459 kts 90°
2026-04-21 11:02 24.93064 47.62941 19932 ft 467 kts 90°
2026-04-21 11:03 24.93268 47.77387 21785 ft 476 kts 90°
2026-04-21 11:03 24.93451 47.92101 23451 ft 484 kts 90°
2026-04-21 11:03 24.93641 48.07086 24757 ft 493 kts 90°
2026-04-21 11:03 24.93817 48.22324 25924 ft 503 kts 90°
2026-04-21 11:04 24.93978 48.37882 26970 ft 513 kts 90°
2026-04-21 11:04 24.94114 48.53721 28055 ft 518 kts 90°
2026-04-21 11:04 24.94241 48.69547 29421 ft 517 kts 90°
2026-04-21 11:04 24.94347 48.85403 30639 ft 517 kts 90°
2026-04-21 11:05 24.94437 49.01385 30916 ft 520 kts 90°
2026-04-21 11:05 24.94511 49.17377 30999 ft 515 kts 90°
2026-04-21 11:05 24.94620 49.49265 31022 ft 518 kts 90°
2026-04-21 11:06 24.94650 49.81202 31006 ft 520 kts 90°
2026-04-21 11:06 24.94601 50.12853 30965 ft 516 kts 90°
2026-04-21 11:07 24.94507 50.44335 30864 ft 517 kts 90°
2026-04-21 11:07 24.94353 50.75752 30738 ft 519 kts 90°
2026-04-21 11:08 24.94128 51.07195 30640 ft 519 kts 90°
2026-04-21 11:08 24.93827 51.38657 30611 ft 516 kts 90°
2026-04-21 11:09 24.93466 51.69790 30605 ft 509 kts 90°
2026-04-21 11:09 24.93048 52.00912 30672 ft 505 kts 91°
2026-04-21 11:10 24.92549 52.32018 30739 ft 502 kts 91°
2026-04-21 11:10 24.92002 52.63007 30819 ft 496 kts 92°
2026-04-21 11:11 24.91392 52.93637 30835 ft 495 kts 92°
2026-04-21 11:11 24.90722 53.24267 30909 ft 495 kts 92°
2026-04-21 11:12 24.90006 53.54766 30936 ft 494 kts 92°
2026-04-21 11:12 24.89379 53.78402 30636 ft 498 kts 92°
2026-04-21 11:13 24.89277 53.82223 30805 ft 498 kts 92°
2026-04-21 11:13 24.89175 53.86045 30143 ft 501 kts 93°
2026-04-21 11:13 24.89071 53.89885 29164 ft 501 kts 93°
2026-04-21 11:13 24.88967 53.93717 28162 ft 500 kts 92°
2026-04-21 11:14 24.88860 53.97551 27197 ft 501 kts 92°
2026-04-21 11:14 24.88752 54.01396 26263 ft 504 kts 92°
2026-04-21 11:14 24.88641 54.05257 25348 ft 504 kts 92°
2026-04-21 11:14 24.88533 54.09105 24474 ft 502 kts 92°
2026-04-21 11:15 24.88548 54.12942 23623 ft 500 kts 85°
2026-04-21 11:15 24.88881 54.16746 22963 ft 495 kts 84°
2026-04-21 11:15 24.89217 54.20499 22474 ft 491 kts 84°
2026-04-21 11:15 24.89549 54.24224 21982 ft 487 kts 84°
2026-04-21 11:16 24.89879 54.27922 21507 ft 482 kts 85°
2026-04-21 11:16 24.90277 54.31574 21031 ft 478 kts 78°
2026-04-21 11:16 24.91179 54.35078 20604 ft 475 kts 72°
2026-04-21 11:16 24.92158 54.38539 20199 ft 472 kts 72°
2026-04-21 11:17 24.93135 54.41979 19794 ft 469 kts 72°
2026-04-21 11:17 24.94106 54.45402 19399 ft 466 kts 72°
2026-04-21 11:17 24.95068 54.48798 19008 ft 464 kts 72°
2026-04-21 11:17 24.96026 54.52184 18618 ft 461 kts 73°
2026-04-21 11:18 24.96976 54.55547 18229 ft 459 kts 73°
2026-04-21 11:18 24.97923 54.58897 17810 ft 456 kts 73°
2026-04-21 11:18 24.98860 54.62221 17374 ft 452 kts 73°
2026-04-21 11:18 24.99787 54.65517 16948 ft 448 kts 73°
2026-04-21 11:19 25.00706 54.68785 16523 ft 444 kts 73°
2026-04-21 11:19 25.01617 54.72018 16104 ft 440 kts 73°
2026-04-21 11:19 25.02522 54.75230 15689 ft 436 kts 73°
2026-04-21 11:19 25.03416 54.78403 15288 ft 430 kts 73°
2026-04-21 11:20 25.04297 54.81533 14877 ft 426 kts 74°
2026-04-21 11:20 25.05168 54.84639 14483 ft 422 kts 74°
2026-04-21 11:20 25.06030 54.87725 14093 ft 419 kts 74°
2026-04-21 11:20 25.06884 54.90788 13710 ft 417 kts 74°
2026-04-21 11:21 25.07731 54.93829 13276 ft 414 kts 74°
2026-04-21 11:21 25.08575 54.96860 12843 ft 412 kts 74°
2026-04-21 11:21 25.09413 54.99869 12420 ft 410 kts 73°
2026-04-21 11:21 25.10247 55.02860 11990 ft 405 kts 73°
2026-04-21 11:22 25.11070 55.05805 11575 ft 397 kts 73°
2026-04-21 11:22 25.11876 55.08684 11166 ft 389 kts 73°
2026-04-21 11:22 25.12666 55.11514 10767 ft 383 kts 73°
2026-04-21 11:22 25.13440 55.14295 10365 ft 377 kts 73°
2026-04-21 11:23 25.14171 55.16931 10464 ft 370 kts 73°
2026-04-21 11:23 25.14912 55.19611 9587 ft 364 kts 72°
2026-04-21 11:23 25.15653 55.22288 9087 ft 360 kts 73°
2026-04-21 11:23 25.16381 55.24917 8589 ft 356 kts 73°
2026-04-21 11:24 25.17100 55.27517 8102 ft 352 kts 73°
2026-04-21 11:24 25.17806 55.30084 7620 ft 347 kts 74°
2026-04-21 11:24 25.18158 55.32683 7137 ft 339 kts 94°
2026-04-21 11:24 25.17723 55.35149 6695 ft 319 kts 113°
2026-04-21 11:25 25.16704 55.37235 6297 ft 300 kts 123°
2026-04-21 11:25 25.15648 55.39100 6163 ft 274 kts 123°
2026-04-21 11:25 25.14668 55.40837 5740 ft 263 kts 124°
2026-04-21 11:25 25.13702 55.42545 5157 ft 261 kts 123°
2026-04-21 11:26 25.12745 55.44233 4600 ft 258 kts 123°
2026-04-21 11:26 25.11797 55.45904 4057 ft 255 kts 122°
2026-04-21 11:26 25.10864 55.47555 3537 ft 252 kts 121°
2026-04-21 11:26 25.09948 55.49191 3099 ft 246 kts 119°
2026-04-21 11:27 25.09092 55.50721 3016 ft 222 kts 118°
2026-04-21 11:27 25.08316 55.52109 3046 ft 206 kts 119°
2026-04-21 11:27 25.07575 55.53438 3036 ft 201 kts 118°
2026-04-21 11:27 25.06856 55.54726 3014 ft 192 kts 119°
2026-04-21 11:28 25.06158 55.55973 3009 ft 189 kts 117°
2026-04-21 11:28 25.05469 55.57209 3022 ft 188 kts 118°
2026-04-21 11:28 25.04853 55.58490 3028 ft 189 kts 101°
2026-04-21 11:28 25.04953 55.59866 3026 ft 177 kts 59°
2026-04-21 11:29 25.05733 55.60840 3025 ft 169 kts 38°
2026-04-21 11:29 25.06719 55.61422 3020 ft 157 kts
2026-04-21 11:29 25.07767 55.61170 3049 ft 157 kts 338°
2026-04-21 11:29 25.08740 55.60617 3031 ft 157 kts 333°
2026-04-21 11:30 25.09681 55.60024 2997 ft 154 kts 333°
2026-04-21 11:30 25.10598 55.59417 3019 ft 153 kts 332°
2026-04-21 11:30 25.11513 55.58809 3041 ft 154 kts 332°
2026-04-21 11:30 25.12435 55.58201 3030 ft 156 kts 332°
2026-04-21 11:31 25.13371 55.57590 3033 ft 157 kts 329°
2026-04-21 11:31 25.14020 55.56629 3026 ft 161 kts 300°
2026-04-21 11:31 25.14583 55.55584 3030 ft 158 kts 309°
2026-04-21 11:31 25.15171 55.54587 2955 ft 152 kts 305°
2026-04-21 11:32 25.15729 55.53611 2805 ft 149 kts 305°
2026-04-21 11:32 25.16276 55.52640 2646 ft 148 kts 306°
2026-04-21 11:32 25.16813 55.51681 2468 ft 147 kts 306°
2026-04-21 11:32 25.17348 55.50722 2293 ft 146 kts 306°
2026-04-21 11:33 25.17875 55.49776 2099 ft 144 kts 305°
2026-04-21 11:33 25.18398 55.48836 1922 ft 143 kts 305°
2026-04-21 11:33 25.18917 55.47902 1741 ft 142 kts 304°
2026-04-21 11:33 25.19432 55.46977 1572 ft 140 kts 306°
2026-04-21 11:34 25.19936 55.46069 1384 ft 138 kts 305°
2026-04-21 11:34 25.20437 55.45169 1211 ft 137 kts 305°
2026-04-21 11:34 25.20932 55.44278 1046 ft 136 kts 305°
2026-04-21 11:34 25.21427 55.43385 887 ft 137 kts 304°
2026-04-21 11:35 25.21931 55.42498 671 ft 136 kts 303°
2026-04-21 11:35 25.22414 55.41602 514 ft 135 kts 301°
2026-04-21 11:35 25.22912 55.40727 316 ft 136 kts 303°
2026-04-21 11:35 25.23409 55.39813 154 ft 139 kts 302°
2026-04-21 11:36 25.23900 55.38918 28 ft 128 kts 303°
2026-04-21 11:36 25.24300 55.38208 22 ft 85 kts 301°
2026-04-21 11:36 25.24521 55.37814 22 ft 36 kts 302°
2026-04-21 11:36 25.24629 55.37608 22 ft 37 kts 300°
2026-04-21 11:37 25.24750 55.37361 23 ft 35 kts 290°
2026-04-21 11:37 25.24784 55.37101 22 ft 34 kts 273°
2026-04-21 11:37 25.24841 55.36864 22 ft 29 kts 294°
2026-04-21 11:37 25.24899 55.36656 23 ft 29 kts 293°
2026-04-21 11:38 25.25003 55.36465 23 ft 29 kts 304°
2026-04-21 11:38 25.25107 55.36287 22 ft 28 kts 302°
2026-04-21 11:38 25.25211 55.36104 22 ft 27 kts 302°
2026-04-21 11:38 25.25306 55.35930 22 ft 24 kts 295°
2026-04-21 11:39 25.25283 55.35800 22 ft 14 kts 289°
2026-04-21 11:39 25.25319 55.35721 22 ft 13 kts 287°
2026-04-21 11:39 25.25303 55.35693 22 ft 2 kts 201°
2026-04-21 11:39 25.25270 55.35668 23 ft 6 kts 216°
2026-04-21 11:40 25.25248 55.35651 22 ft 5 kts 214°
2026-04-21 11:40 25.25236 55.35643 24 ft 0 kts 212°
2026-04-21 11:40 25.25237 55.35644 25 ft 0 kts 212°